Time,TemperatureF,DewpointF,PressureIn,WindDirection,WindDirectionDegrees,WindSpeedMPH,WindSpeedGustMPH,Humidity,HourlyPrecipIn,Conditions,Clouds,dailyrainin,SoftwareType,DateUTC
2013-06-19 00:10:00,77.9,73.0,30.70,ENE,71,0.0,-999.0,84,-99.99,,,0.00,weatherlink.com 1.10,2013-06-19 05:10:00,
2013-06-19 00:25:00,77.7,73.0,30.70,ENE,71,2.0,-999.0,84,-99.99,,,0.00,weatherlink.com 1.10,2013-06-19 05:25:00,
2013-06-19 00:41:00,77.7,73.0,30.70,ESE,113,1.0,-999.0,85,-99.99,,,0.00,weatherlink.com 1.10,2013-06-19 05:41:00,
2013-06-19 00:56:00,77.3,73.0,30.70,South,175,2.0,-999.0,86,-99.99,,,0.00,weatherlink.com 1.10,2013-06-19 05:56:00,
2013-06-19 01:11:00,77.1,73.0,30.70,SSE,163,3.0,-999.0,86,-99.99,,,0.00,weatherlink.com 1.10,2013-06-19 06:11:00,
2013-06-19 01:26:00,77.1,73.0,30.69,SSE,167,2.0,-999.0,86,-99.99,,,0.00,weatherlink.com 1.10,2013-06-19 06:26:00,
2013-06-19 01:41:00,77.0,73.0,30.69,South,173,2.0,-999.0,87,-99.99,,,0.00,weatherlink.com 1.10,2013-06-19 06:41:00,
2013-06-19 01:55:00,76.4,73.0,30.69,South,181,3.0,-999.0,88,-99.99,,,0.00,weatherlink.com 1.10,2013-06-19 06:55:00,
2013-06-19 02:10:00,76.3,73.0,30.69,SSE,154,2.0,-999.0,88,-99.99,,,0.00,weatherlink.com 1.10,2013-06-19 07:10:00,
2013-06-19 02:25:00,76.2,73.0,30.69,SSE,154,2.0,-999.0,88,-99.99,,,0.00,weatherlink.com 1.10,2013-06-19 07:25:00,
2013-06-19 02:42:00,76.1,72.0,30.68,SSE,159,0.0,-999.0,88,-99.99,,,0.00,weatherlink.com 1.10,2013-06-19 07:42:00,
2013-06-19 02:55:00,76.0,73.0,30.68,South,178,1.0,-999.0,89,-99.99,,,0.00,weatherlink.com 1.10,2013-06-19 07:55:00,
2013-06-19 03:10:00,75.7,72.0,30.68,South,175,0.0,-999.0,89,-99.99,,,0.00,weatherlink.com 1.10,2013-06-19 08:10:00,
2013-06-19 03:26:00,75.4,72.0,30.68,South,175,1.0,-999.0,90,-99.99,,,0.00,weatherlink.com 1.10,2013-06-19 08:26:00,
2013-06-19 03:41:00,75.1,72.0,30.68,South,175,2.0,-999.0,90,-99.99,,,0.00,weatherlink.com 1.10,2013-06-19 08:41:00,
2013-06-19 03:56:00,75.1,72.0,30.68,SSE,163,2.0,-999.0,91,-99.99,,,0.00,weatherlink.com 1.10,2013-06-19 08:56:00,
2013-06-19 04:11:00,74.9,73.0,30.68,SSE,162,2.0,-999.0,92,-99.99,,,0.00,weatherlink.com 1.10,2013-06-19 09:11:00,
2013-06-19 04:26:00,74.9,73.0,30.68,SSE,162,2.0,-999.0,92,-99.99,,,0.00,weatherlink.com 1.10,2013-06-19 09:26:00,
2013-06-19 04:41:00,74.9,73.0,30.68,SSE,162,1.0,-999.0,92,-99.99,,,0.00,weatherlink.com 1.10,2013-06-19 09:41:00,
2013-06-19 04:56:00,74.8,72.0,30.69,SSE,162,0.0,-999.0,92,-99.99,,,0.00,weatherlink.com 1.10,2013-06-19 09:56:00,
2013-06-19 05:11:00,74.8,72.0,30.69,SSE,162,0.0,-999.0,92,-99.99,,,0.00,weatherlink.com 1.10,2013-06-19 10:11:00,
2013-06-19 05:26:00,74.7,72.0,30.70,SSE,162,0.0,-999.0,92,-99.99,,,0.00,weatherlink.com 1.10,2013-06-19 10:26:00,
2013-06-19 05:41:00,74.6,72.0,30.69,SSE,162,0.0,-999.0,92,-99.99,,,0.00,weatherlink.com 1.10,2013-06-19 10:41:00,
2013-06-19 05:56:00,74.5,72.0,30.70,SSE,162,0.0,-999.0,92,-99.99,,,0.00,weatherlink.com 1.10,2013-06-19 10:56:00,
2013-06-19 06:11:00,74.4,72.0,30.70,SSE,162,1.0,-999.0,92,-99.99,,,0.00,weatherlink.com 1.10,2013-06-19 11:11:00,
2013-06-19 06:26:00,74.4,72.0,30.70,SSE,162,2.0,-999.0,93,-99.99,,,0.00,weatherlink.com 1.10,2013-06-19 11:26:00,
2013-06-19 06:41:00,74.5,72.0,30.71,SSE,162,0.0,-999.0,93,-99.99,,,0.00,weatherlink.com 1.10,2013-06-19 11:41:00,
2013-06-19 06:56:00,74.7,73.0,30.71,SSE,162,0.0,-999.0,93,-99.99,,,0.00,weatherlink.com 1.10,2013-06-19 11:56:00,
2013-06-19 07:11:00,75.2,73.0,30.71,SSE,166,3.0,-999.0,93,-99.99,,,0.00,weatherlink.com 1.10,2013-06-19 12:11:00,
2013-06-19 07:26:00,75.7,74.0,30.72,South,170,1.0,-999.0,93,-99.99,,,0.00,weatherlink.com 1.10,2013-06-19 12:26:00,
2013-06-19 07:41:00,76.1,74.0,30.73,South,176,3.0,-999.0,93,-99.99,,,0.00,weatherlink.com 1.10,2013-06-19 12:41:00,
2013-06-19 07:56:00,76.9,75.0,30.72,South,175,2.0,-999.0,93,-99.99,,,0.00,weatherlink.com 1.10,2013-06-19 12:56:00,
2013-06-19 08:11:00,77.7,75.0,30.73,South,172,3.0,-999.0,92,-99.99,,,0.00,weatherlink.com 1.10,2013-06-19 13:11:00,
2013-06-19 08:26:00,78.5,76.0,30.73,South,180,2.0,-999.0,91,-99.99,,,0.00,weatherlink.com 1.10,2013-06-19 13:26:00,
2013-06-19 08:41:00,79.3,76.0,30.73,SSE,167,3.0,-999.0,90,-99.99,,,0.00,weatherlink.com 1.10,2013-06-19 13:41:00,
2013-06-19 08:56:00,79.5,76.0,30.73,SSE,159,2.0,-999.0,89,-99.99,,,0.00,weatherlink.com 1.10,2013-06-19 13:56:00,
2013-06-19 09:11:00,79.7,76.0,30.73,SSE,167,1.0,-999.0,89,-99.99,,,0.00,weatherlink.com 1.10,2013-06-19 14:11:00,
2013-06-19 09:26:00,80.8,76.0,30.73,South,180,9.0,-999.0,86,-99.99,,,0.00,weatherlink.com 1.10,2013-06-19 14:26:00,
2013-06-19 09:41:00,82.3,76.0,30.73,SSW,199,7.0,-999.0,82,-99.99,,,0.00,weatherlink.com 1.10,2013-06-19 14:41:00,
2013-06-19 09:56:00,82.7,76.0,30.73,South,178,10.0,-999.0,79,-99.99,,,0.00,weatherlink.com 1.10,2013-06-19 14:56:00,
2013-06-19 10:11:00,83.2,75.0,30.73,SW,214,7.0,-999.0,76,-99.99,,,0.00,weatherlink.com 1.10,2013-06-19 15:11:00,
2013-06-19 10:26:00,83.2,75.0,30.73,South,173,3.0,-999.0,75,-99.99,,,0.00,weatherlink.com 1.10,2013-06-19 15:26:00,
2013-06-19 10:41:00,84.3,74.0,30.74,South,185,10.0,-999.0,72,-99.99,,,0.00,weatherlink.com 1.10,2013-06-19 15:41:00,
2013-06-19 10:56:00,85.1,75.0,30.74,South,186,3.0,-999.0,71,-99.99,,,0.00,weatherlink.com 1.10,2013-06-19 15:56:00,
2013-06-19 11:11:00,84.7,74.0,30.74,South,175,4.0,-999.0,71,-99.99,,,0.00,weatherlink.com 1.10,2013-06-19 16:11:00,
2013-06-19 11:26:00,86.0,76.0,30.74,South,177,9.0,-999.0,72,-99.99,,,0.00,weatherlink.com 1.10,2013-06-19 16:26:00,
2013-06-19 11:42:00,87.2,76.0,30.74,South,169,6.0,-999.0,70,-99.99,,,0.00,weatherlink.com 1.10,2013-06-19 16:42:00,
2013-06-19 12:12:00,87.8,75.0,30.74,SSW,211,6.0,-999.0,66,-99.99,,,0.00,weatherlink.com 1.10,2013-06-19 17:12:00,
2013-06-19 12:26:00,88.4,75.0,30.74,SSE,167,4.0,-999.0,64,-99.99,,,0.00,weatherlink.com 1.10,2013-06-19 17:26:00,
2013-06-19 12:42:00,89.1,75.0,30.73,South,184,6.0,-999.0,63,-99.99,,,0.00,weatherlink.com 1.10,2013-06-19 17:42:00,
2013-06-19 12:57:00,89.4,75.0,30.72,South,178,1.0,-999.0,62,-99.99,,,0.00,weatherlink.com 1.10,2013-06-19 17:57:00,
2013-06-19 13:12:00,90.0,74.0,30.72,South,190,4.0,-999.0,59,-99.99,,,0.00,weatherlink.com 1.10,2013-06-19 18:12:00,
2013-06-19 13:27:00,90.6,75.0,30.71,SSE,151,5.0,-999.0,61,-99.99,,,0.00,weatherlink.com 1.10,2013-06-19 18:27:00,
2013-06-19 13:42:00,91.5,75.0,30.71,SSE,167,5.0,-999.0,58,-99.99,,,0.00,weatherlink.com 1.10,2013-06-19 18:42:00,
2013-06-19 13:57:00,91.5,74.0,30.70,East,80,2.0,-999.0,57,-99.99,,,0.00,weatherlink.com 1.10,2013-06-19 18:57:00,
2013-06-19 14:12:00,92.0,75.0,30.70,SSE,167,4.0,-999.0,58,-99.99,,,0.00,weatherlink.com 1.10,2013-06-19 19:12:00,
2013-06-19 14:27:00,91.1,73.0,30.70,SSW,193,2.0,-999.0,56,-99.99,,,0.00,weatherlink.com 1.10,2013-06-19 19:27:00,
2013-06-19 14:42:00,92.0,74.0,30.69,SSW,197,0.0,-999.0,55,-99.99,,,0.00,weatherlink.com 1.10,2013-06-19 19:42:00,
2013-06-19 14:57:00,93.0,76.0,30.69,SSW,198,3.0,-999.0,57,-99.99,,,0.00,weatherlink.com 1.10,2013-06-19 19:57:00,
2013-06-19 15:12:00,93.4,73.0,30.69,South,188,4.0,-999.0,52,-99.99,,,0.00,weatherlink.com 1.10,2013-06-19 20:12:00,
2013-06-19 15:27:00,93.7,73.0,30.68,SSW,198,2.0,-999.0,52,-99.99,,,0.00,weatherlink.com 1.10,2013-06-19 20:27:00,
2013-06-19 15:42:00,93.9,73.0,30.68,East,98,2.0,-999.0,51,-99.99,,,0.00,weatherlink.com 1.10,2013-06-19 20:42:00,
2013-06-19 15:57:00,93.7,73.0,30.68,SSW,200,5.0,-999.0,52,-99.99,,,0.00,weatherlink.com 1.10,2013-06-19 20:57:00,
2013-06-19 16:12:00,94.0,73.0,30.66,SSE,158,6.0,-999.0,51,-99.99,,,0.00,weatherlink.com 1.10,2013-06-19 21:12:00,
2013-06-19 16:27:00,94.2,73.0,30.66,ESE,114,3.0,-999.0,50,-99.99,,,0.00,weatherlink.com 1.10,2013-06-19 21:27:00,
2013-06-19 16:42:00,94.5,73.0,30.66,South,182,2.0,-999.0,50,-99.99,,,0.00,weatherlink.com 1.10,2013-06-19 21:42:00,
2013-06-19 16:57:00,94.8,73.0,30.65,ESE,107,3.0,-999.0,50,-99.99,,,0.00,weatherlink.com 1.10,2013-06-19 21:57:00,
2013-06-19 17:12:00,94.3,73.0,30.65,South,182,7.0,-999.0,51,-99.99,,,0.00,weatherlink.com 1.10,2013-06-19 22:12:00,
2013-06-19 17:27:00,94.4,74.0,30.66,SSE,162,3.0,-999.0,51,-99.99,,,0.00,weatherlink.com 1.10,2013-06-19 22:27:00,
2013-06-19 17:42:00,94.4,74.0,30.66,South,171,2.0,-999.0,51,-99.99,,,0.00,weatherlink.com 1.10,2013-06-19 22:42:00,
2013-06-19 17:57:00,94.3,73.0,30.66,SSE,167,3.0,-999.0,51,-99.99,,,0.00,weatherlink.com 1.10,2013-06-19 22:57:00,
2013-06-19 18:12:00,93.9,74.0,30.66,SSE,164,1.0,-999.0,52,-99.99,,,0.00,weatherlink.com 1.10,2013-06-19 23:12:00,
2013-06-19 18:27:00,93.4,73.0,30.65,SSE,168,4.0,-999.0,51,-99.99,,,0.00,weatherlink.com 1.10,2013-06-19 23:27:00,
2013-06-19 18:42:00,93.0,73.0,30.65,SSE,157,4.0,-999.0,52,-99.99,,,0.00,weatherlink.com 1.10,2013-06-19 23:42:00,
2013-06-19 18:57:00,92.8,72.0,30.66,SSE,160,2.0,-999.0,51,-99.99,,,0.00,weatherlink.com 1.10,2013-06-19 23:57:00,
2013-06-19 19:12:00,92.4,72.0,30.66,ESE,107,1.0,-999.0,51,-99.99,,,0.00,weatherlink.com 1.10,2013-06-20 00:12:00,
2013-06-19 19:27:00,91.8,72.0,30.66,ESE,121,2.0,-999.0,52,-99.99,,,0.00,weatherlink.com 1.10,2013-06-20 00:27:00,
2013-06-19 19:42:00,91.1,72.0,30.67,East,82,2.0,-999.0,53,-99.99,,,0.00,weatherlink.com 1.10,2013-06-20 00:42:00,
2013-06-19 19:57:00,89.0,75.0,30.68,ENE,65,5.0,-999.0,63,-99.99,,,0.00,weatherlink.com 1.10,2013-06-20 00:57:00,
2013-06-19 20:12:00,87.8,74.0,30.67,East,86,5.0,-999.0,64,-99.99,,,0.00,weatherlink.com 1.10,2013-06-20 01:12:00,
2013-06-19 20:42:00,86.0,74.0,30.69,ENE,76,4.0,-999.0,68,-99.99,,,0.00,weatherlink.com 1.10,2013-06-20 01:42:00,
2013-06-19 20:57:00,85.2,74.0,30.69,ENE,67,6.0,-999.0,69,-99.99,,,0.00,weatherlink.com 1.10,2013-06-20 01:57:00,
2013-06-19 21:12:00,84.6,74.0,30.69,East,87,2.0,-999.0,71,-99.99,,,0.00,weatherlink.com 1.10,2013-06-20 02:12:00,
2013-06-19 21:27:00,84.1,74.0,30.69,SE,130,3.0,-999.0,72,-99.99,,,0.00,weatherlink.com 1.10,2013-06-20 02:27:00,
2013-06-19 21:42:00,83.6,75.0,30.69,ESE,111,3.0,-999.0,74,-99.99,,,0.00,weatherlink.com 1.10,2013-06-20 02:42:00,
2013-06-19 21:57:00,83.0,74.0,30.70,SSE,150,4.0,-999.0,75,-99.99,,,0.00,weatherlink.com 1.10,2013-06-20 02:57:00,
2013-06-19 22:12:00,82.5,74.0,30.70,SE,145,2.0,-999.0,76,-99.99,,,0.00,weatherlink.com 1.10,2013-06-20 03:12:00,
2013-06-19 22:27:00,81.5,74.0,30.71,South,170,1.0,-999.0,77,-99.99,,,0.00,weatherlink.com 1.10,2013-06-20 03:27:00,
2013-06-19 22:42:00,81.3,73.0,30.71,South,169,5.0,-999.0,77,-99.99,,,0.00,weatherlink.com 1.10,2013-06-20 03:42:00,
2013-06-19 22:57:00,81.3,73.0,30.71,SSE,157,4.0,-999.0,77,-99.99,,,0.00,weatherlink.com 1.10,2013-06-20 03:57:00,
2013-06-19 23:12:00,81.1,73.0,30.72,South,169,5.0,-999.0,77,-99.99,,,0.00,weatherlink.com 1.10,2013-06-20 04:12:00,
2013-06-19 23:27:00,80.6,73.0,30.72,South,173,4.0,-999.0,78,-99.99,,,0.00,weatherlink.com 1.10,2013-06-20 04:27:00,
2013-06-19 23:42:00,80.1,73.0,30.74,South,175,5.0,-999.0,80,-99.99,,,0.00,weatherlink.com 1.10,2013-06-20 04:42:00,
2013-06-19 23:57:00,79.7,73.0,30.74,South,173,6.0,-999.0,81,-99.99,,,0.00,weatherlink.com 1.10,2013-06-20 04:57:00,